ITAMSAT (IO-26)

Last updated on Tue Aug 25 2026 00:03:13 GMT+0000 (Coordinated Universal Time)

1 22826U 93061D 26236.41394138 .00000059 00000+0 39275-4 0 9994 2 22826 98.6776 303.7089 0007892 239.3247 120.7158 14.31385534717074
UTC large
Height (km)
Speed (km/s)
/
Latitude / Longitude
Inclination (degrees)
Orbital Period (minutes)
Azimuth
Elevation
Range (km)
Doppler Factor

Next 0 passes for location: London (51.5072 / 0.1276)

No passes found over London.
ITAMSAT (IO-26)